星链-33607 (STARLINK-33607)

导读

STARLINK-33607是美国SpaceX星链互联网卫星星座的成员之一,于2025年3月18日发射。作为低轨通信卫星,它承担着向全球提供高速低延迟互联网覆盖的任务,尤其服务偏远地区、移动载体等场景,是星链大规模组网进程中补充发射的卫星,进一步完善星座覆盖密度与服务能力。

Basic Information
目录编号:
63323
目录名称:
STARLINK-33607
国际标识:
2025-057S
轨道中心:
EARTH
卫星名称:
星链-33607
卫星全名:
星链-33607 (STARLINK-33607)
卫星状态:
在轨 (已飞行535 天)
发射日期:
2025-03-18 UTC
国别 :
美国 (US)
星等 :
--
Orbit Information
数据来源 国际轨道数据 AOE轨道数据
星历时间 2026-09-04T08:52:26+0800
13小时前
查看轨道信息
2026-08-29T23:00:00+0800
5天前
查看轨道信息
半长轴 6861.131km 6861.185km
偏心率 0.0001009 0.0000722
轨道倾角 43.002° 43.003°
近地点辐角 272.915° 299.168°
升交点赤经 103.612° 134.182°
平近点角 87.159° 147.191°
近地点 482.301km 482.552km
远地点 483.687km 483.544km
周期 94.266分钟 94.267分钟
每日圈数 15.275987 15.275804
Detailed Information
固有亮度:
5
最大亮度:
2.5
卫星平台:
Starlink V1.0
覆盖范围:
全球
运营商:
太空探索技术公司
运营商所在国:
美国
制造商(研发单位):
太空探索技术公司
制造商所在国:
美国
使用方式:
暂无
Satellite Introduction
Starlink 计划是 SpaceX 推出的全球卫星互联网项目,通过发射低轨道卫星,为全球尤其是偏远地区提供高速、低延迟的互联网服务。自 2019 年起,Starlink 已部署数千颗卫星,旨在缩小全球数字鸿沟,推动互联网普及。该项目还为军事、航空等行业提供通信支持,带来广泛经济效益。
2D Orbit Map
3D Orbit Map
Orbit Altitude Analysis Chart
Orbit Inclination Analysis Chart
Orbit Comprehensive Analysis Chart
View Comprehensive Chart
Conjunction Data List
Event ID Objects TCA Miss Dist (km) Collision Risk Probability Collision Risk Index (CRI) Action
CDM_260906-014305-620006-332321
HAWK-7C (56200)
2026-09-06T
01:43:13+0000
1.019 km
极远距离
1.68124E-5 中风险 0.6
CDM_260827-181806-332306-376721
2026-08-27T
18:18:49+0000
0.853 km
远距离
9.542821E-6 低风险 0.55
CDM_260907-042704-377006-332321
AO-95 (43770)
2026-09-07T
04:27:00+0000
1.614 km
极远距离
4.996558E-6 低风险 0.49